Location: Alafon
(8.4500°N, 4.2333°E)
Time: 09:38:36
(UTC+00:00)

A-11 Canister half - Pass Details

Date: 07 August 2021
Orbit: 1515 x 1685 km, 47.2° (Epoch: 21 September)

Event Time Altitude Azimuth Distance (km) Brightness Sun altitude
Rises 20:54:30 0° 341° (NNW) 4,909 12.2 -40.3°
Reaches altitude 10° 20:59:06 10° 358° (N) 3,935 11.4 -41.3°
Enters shadow 21:04:13 18° 29° (NNE) 3,319 10.7 -42.4°
Maximum altitude 21:05:40 19° 40° (NE) 3,284 - -42.7°
Drops below altitude 10° 21:12:11 10° 81° (E) 3,934 - -44.1°
Sets 21:16:43 0° 98° (E) 4,907 - -45.0°
